2001 12 16  21 00 00   02 29 55.7   +41 45 58     0.01291   0.994   10.2  1268.2

/262.9   100.2/40.16    - 4.0  149    -13.3  289    1931719.1   8.73

2001 12 16  22 00 00   02 25 15.0   +41 39 05     0.01297   0.994   10.2  1247.9

/262.5    99.1/40.97    - 9.9  160    - 2.0  297    1940734.1   8.64

                               .                   .         .        .       . 

            .    .         .             .                 .     .  

2001 12 17  08 00 00   01 41 06.7   +40 15 36     0.01366   0.992   10.6  1205.7

/257.6    89.7/48.88    +53.6  247    - 1.3   62    2043782.0   8.94

2001 12 17  09 00 00   01 36 50.2   +40 04 31     0.01375   0.992   10.6  1199.2

/256.6    88.9/49.67    +65.9  248    -12.6   70    2056421.1   9.03

2001 12 17  10 00 00   01 32 36.8   +39 52 39     0.01384   0.992   10.6  1188.6

/255.5    88.0/50.46    +78.0  239    -24.5   78    2069735.4   9.11

2001 12 17  11 00 00   01 28 27.6   +39 40 01     0.01393   0.992   10.7  1174.3

/254.5    87.2/51.23    +84.4  159    -36.7   85    2083747.2   9.18

2001 12 17  12 00 00   01 24 23.4   +39 26 38     0.01403   0.992   10.7  1155.6

/253.3    86.4/52.00    +74.4  114    -49.0   93    2098465.5   9.22

2001 12 17  13 00 00   01 20 25.3   +39 12 34     0.01413   0.992   10.8  1132.8

/252.2    85.6/52.75    +62.1  110    -61.2  105    2113864.6   9.24

2001 12 17  14 00 00   01 16 34.0   +38 57 56     0.01424   0.992   10.8  1107.4

/251.2    84.9/53.48    +49.7  112    -72.5  125    2129894.5   9.24

2001 12 17  15 00 00   01 12 50.1   +38 42 50     0.01435   0.992   10.8  1079.3

/250.2    84.2/54.19    +37.6  115    -78.9  178    2146497.3   9.21

2001 12 17  16 00 00   01 09 13.9   +38 27 23     0.01446   0.992   10.9  1049.6

/249.3    83.5/54.89    +25.8  120    -73.2  232    2163587.3   9.16

2001 12 17  17 00 00   01 05 45.6   +38 11 46     0.01458   0.992   10.9  1020.1

/248.6    82.8/55.57    +14.8  127    -62.1  254    2181068.6   9.08

2001 12 17  18 00 00   01 02 24.9   +37 56 04     0.01470   0.991   11.0   991.0

/248.0    82.2/56.22    + 4.6  134    -49.9  266    2198854.3   9.00

2001 12 17  19 00 00   00 59 11.4   +37 40 25     0.01482   0.991   11.0   963.3

/247.6    81.5/56.86    - 4.3  143    -37.5  275    2216848.5   8.90

                               .                   .         .        .       . 

            .    .         .             .                 .     .  

2001 12 18  08 00 00   00 22 50.6   +34 34 23     0.01643   0.990   11.5   840.7

/245.9    75.1/64.30    +69.3  263    - 1.2   62    2458367.6   8.93

2001 12 18  09 00 00   00 20 15.8   +34 19 57     0.01657   0.990   11.5   831.2

/245.1    74.7/64.85    +82.2  268    -12.5   70    2478918.7   9.02

2001 12 18  10 00 00   00 17 44.0   +34 05 18     0.01671   0.990   11.5   818.5

/244.3    74.3/65.39    +84.9   87    -24.4   77    2500015.6   9.10

2001 12 18  11 00 00   00 15 15.9   +33 50 26     0.01686   0.990   11.6   803.3

/243.5    73.9/65.92    +72.0   94    -36.6   85    2521651.6   9.16

2001 12 18  12 00 00   00 12 52.1   +33 35 24     0.01700   0.989   11.6   785.3

/242.6    73.5/66.43    +59.1   99    -48.9   93    2543812.2   9.21

2001 12 18  13 00 00   00 10 33.0   +33 20 14     0.01716   0.989   11.7   764.9

/241.7    73.1/66.94    +46.4  104    -61.1  104    2566444.6   9.23

2001 12 18  14 00 00   00 08 19.1   +33 05 03     0.01731   0.989   11.7   743.3

/240.8    72.8/67.43    +34.1  110    -72.4  125    2589476.6   9.22

2001 12 18  15 00 00   00 06 10.3   +32 49 53     0.01747   0.989   11.7   720.6

/240.1    72.4/67.90    +22.1  116    -78.9  177    2612838.3   9.19

2001 12 18  16 00 00   00 04 06.8   +32 34 50     0.01762   0.989   11.8   697.5

/239.4    72.1/68.36    +10.8  122    -73.3  232    2636433.9   9.14

2001 12 18  17 00 00   00 02 08.4   +32 19 59     0.01778   0.989   11.8   675.4

/238.9    71.8/68.80    + 0.3  130    -62.2  254    2660164.9   9.06

2001 12 18  18 00 00   00 00 14.6   +32 05 23     0.01794   0.989   11.8   654.4

/238.5    71.5/69.22    - 9.0  140    -50.0  266    2683953.7   8.98

NAKANO

         **** Don't distribute anyone except personal use only ****

                (C) Copyright 2001 OAA/ComputingSection

write mail from CFAD0::NAKANO on 2001-12-16 04:24:01(JST).

 

◎1998 WT24の軌道と予報位置です



 年末に地球に0.01AUまで接近するこの小惑星ですが,11月6日に豊中の

江崎裕介氏と上尾の門田健一氏によって観測されました.両氏の CCD光度

は,それぞれ,17.3等と17.1等でした.なお,天文年鑑2001にあるとおり,

この小惑星は,12月16.3日に地球に0.0125AUまで接近し,その頃,9等級

まで明るくなります.



No identification:

 

1998 WT24                                                                   

Epoch 2001 Oct. 18.0 TT = JDT 2452200.5                 Nakano

M 115.95083              (2000.0)            P               Q

n   1.62000255     Peri.  167.37389     -0.34883937     +0.92849974

a   0.7180019      Node    82.10000     -0.87063455     -0.27080376

e   0.4184504      Incl.    7.38270     -0.34685238     -0.25407393

P   0.61           H   17.7           G   0.15           U   3

Residuals in seconds of arc 

981124 699  1.7-  1.1+    981202 327  0.5+  0.3-    991104 413  0.2-  0.1+  

981124 699  0.7-  1.2+    981204 046  0.9+  0.0     991104 413  1.7+  0.8+  

981124 699  1.1-  0.1+    981204 046  0.1+  0.1+    000207 413  0.6-  0.4+  

981125 704  1.0-  0.5-    981204 046  0.3-  0.0     000207 413  0.5+  0.1+  

981125 704 (2.5-  1.5+)   981204 046  0.4-  0.1+    000207 413  0.0   0.2+  

981125 704  0.1+  0.8-    981204 046  0.6-  0.3+    000208 413  0.5+  0.4+  

981125 704  0.9+  1.1-    981204 046  0.3-  0.5+    000208 413  0.6+  0.3+  

981125 704  1.4+  0.6-    981206 104  1.5+  0.4+    011103 587  0.3-  0.9+  

981126 734  0.6-  1.2-    981206 104 (2.5+  0.2-)   011103 587  0.4+  0.4+  

981126 734  0.9+  1.0-    981206 104  1.6+  0.1+    011103 587  0.0   0.8+  

981126 734 (2.5+  0.8-)   981216 360  0.6+  0.5+    011103 118  0.3+  0.2+  

981201 704  0.9-  0.8+    981216 360  0.3+  0.5+    011103 118  0.2+  0.3-  

981201 704  1.1-  0.6-    981216 360  0.3+  0.8+    011103 118  0.2+  0.2+  

981201 704  1.7-  0.1+    981217 046  0.3-  0.3+    011103 118  0.2+  0.2-  

981201 704  0.4-  0.0     981217 046  0.4-  0.3+    011106 340  0.5-  0.4-  

981201 704  0.1+  0.0     981217 046  0.1-  0.1-    011106 340  0.5-  0.3-  

981201 704  0.2+  0.4+    981218 402  1.0-  0.6-    011106 349  0.8+  0.0   

981201 704  0.5+  0.6+    981218 402  0.4+  0.8-    011106 340  0.0   0.4-  

981201 704  0.4+  0.2-    981218 402  0.7-  0.7-    011106 340  0.0   0.8-  

981201 704  0.7-  0.5+    981227 402  0.2-  0.1-    011106 349  0.3+  0.3-  

981202 327  0.4+  0.1-    981227 402  0.4+  0.1-                            

981202 327  1.2+  0.1+    991104 413  0.1-  0.3-                            

 

J98W24T 0.15K0187425526916737389020820999955007382697204175536860418450431 K01AI

1998 WT24  17.7  K01AI 116.0 167.4  82.1   7.4 0.418   0.718   3  1078    61 3 N

akano    MPC xxxxx J98BO K01B6  0.63 h M-v 003E          733

 

Date/  0h TT  R.A.(2000) Decl.     Delta   r     Daily motion  Mag.  Moon Age

                h  m       。  ,                      ,  / PA 。  V       。

2001 Nov.  5  09 03.63  -01 49.8   0.200  0.991     2.6 /  54  17.1   53  .85

           6  09 03.77  -01 48.3   0.196  0.993     2.7 /  54  17.1   42  .77

           7  09 03.91  -01 46.8   0.191  0.996     2.7 /  53  17.0   31  .67

           8  09 04.06  -01 45.1   0.187  0.998     2.8 /  52  16.9   23  .56

           9  09 04.20  -01 43.4   0.183  1.000     2.8 /  49  16.9   22  .44

          10  09 04.35  -01 41.5   0.179  1.002     2.8 /  46  16.8   29  .33

          11  09 04.48  -01 39.6   0.174  1.004     2.9 /  41  16.7   39  .23

          12  09 04.61  -01 37.4   0.170  1.006     2.9 /  35  16.6   52  .14

          13  09 04.72  -01 35.0   0.165  1.007     3.0 /  28  16.6   65  .07

          14  09 04.81  -01 32.4   0.161  1.009     3.1 /  21  16.5   78  .02

          15  09 04.89  -01 29.5   0.156  1.010     3.3 /  13  16.4   91  .00

          16  09 04.93  -01 26.3   0.152  1.012     3.6 /   5  16.3  104  .01

          17  09 04.95  -01 22.8   0.147  1.013     4.0 / 357  16.2  116  .04

          18  09 04.94  -01 18.8   0.142  1.014     4.5 / 350  16.1  128  .09

          19  09 04.89  -01 14.3   0.138  1.015     5.2 / 344  16.0  139  .15

          20  09 04.80  -01 09.3   0.133  1.016     6.0 / 339  15.9  149  .23

          21  09 04.65  -01 03.7   0.128  1.017     6.9 / 335  15.8  157  .32

          22  09 04.46  -00 57.4   0.123  1.017     8.1 / 331  15.7  159  .41

          23  09 04.20  -00 50.3   0.119  1.018     9.4 / 328  15.6  155  .50

          24  09 03.87  -00 42.4   0.114  1.018    10.9 / 326  15.5  148  .60

          25  09 03.47  -00 33.4   0.109  1.018    12.6 / 324  15.4  138  .69

          26  09 02.97  -00 23.2   0.104  1.018    14.6 / 322  15.3  127  .77

          27  09 02.37  -00 11.7   0.099  1.018    17.0 / 321  15.1  116  .85

          28  09 01.66  +00 01.4   0.094  1.018    19.7 / 319  15.0  104  .91

          29  09 00.80  +00 16.3   0.089  1.018    22.9 / 318  14.8   92  .96

          30  08 59.78  +00 33.4   0.084  1.018    26.8 / 317  14.7   80  .99

     Dec.  1  08 58.57  +00 53.1   0.079  1.017    31.4 / 316  14.5   67 1.00

           2  08 57.12  +01 15.8   0.074  1.017    37.0 / 316  14.3   54  .98

           3  08 55.40  +01 42.3   0.069  1.016    43.9 / 315  14.1   41  .95

           4  08 53.33  +02 13.4   0.064  1.015    52.6 / 314  13.9   29  .88

           5  08 50.83  +02 50.3   0.059  1.014    63.6 / 314  13.7   20  .80

           6  08 47.77  +03 34.5   0.054  1.013    77.9 / 314  13.5   19  .70

           7  08 43.99  +04 28.1   0.049  1.012    96.9 / 313  13.2   28  .59

           8  08 39.26  +05 34.3   0.044  1.011   122.8 / 313  12.9   41  .48

           9  08 33.20  +06 57.6   0.039  1.009   159.3 / 312  12.6   56  .37

          10  08 25.26  +08 44.7   0.034  1.008   212.6 / 312  12.2   71  .26

